CW1575 Weather Reports


Display with metric or nautical units.
time (UTC)temp
F
wind
direction
speed
MPH
gust
MPH
rain 1hr
in
rain 24hr
in
rain mn
in
humidity
%
barometer
mb
20150801114503 61 193 0.0 1.0 0.00 0.00 0.00 72 1023.1
20150801114003 61 193 0.0 1.0 0.00 0.00 0.00 71 1022.9
20150801113502 61 193 0.0 1.0 0.00 0.00 0.00 70 1022.8
20150801113002 61 193 1.0 1.0 0.00 0.00 0.00 69 1022.8
20150801112503 62 193 0.0 0.0 0.00 0.00 0.00 69 1022.7
20150801112002 62 193 0.0 0.0 0.00 0.00 0.00 69 1022.7
20150801111502 62 193 0.0 1.0 0.00 0.00 0.00 69 1022.7
20150801111002 62 193 0.0 1.0 0.00 0.00 0.00 68 1022.7
20150801110503 62 193 0.0 0.0 0.00 0.00 0.00 68 1022.7
20150801110003 62 193 0.0 0.0 0.00 0.00 0.00 68 1022.9
20150801105502 62 193 0.0 1.0 0.00 0.00 0.00 68 1022.8
20150801105002 63 193 0.0 0.0 0.00 0.00 0.00 68 1022.9
20150801104503 63 193 0.0 1.0 0.00 0.00 0.00 68 1022.9
20150801104002 63 193 0.0 1.0 0.00 0.00 0.00 68 1022.9
20150801103501 63 193 0.0 2.0 0.00 0.00 0.00 68 1023.0
20150801103003 63 193 0.0 1.0 0.00 0.00 0.00 68 1023.1
20150801102502 63 193 0.0 0.0 0.00 0.00 0.00 67 1023.0
20150801102001 64 193 0.0 1.0 0.00 0.00 0.00 66 1023.1
20150801101502 64 193 0.0 1.0 0.00 0.00 0.00 66 1022.9
20150801101002 64 193 0.0 1.0 0.00 0.00 0.00 66 1022.9
20150801100503 64 193 0.0 1.0 0.00 0.00 0.00 66 1023.0
20150801100001 64 193 0.0 1.0 0.00 0.00 0.00 66 1023.0
20150801095503 64 193 0.0 1.0 0.00 0.00 0.00 67 1023.0
20150801095003 64 193 0.0 1.0 0.00 0.00 0.00 67 1023.0
20150801094502 64 193 0.0 1.0 0.00 0.00 0.00 67 1023.0
20150801094002 64 193 0.0 1.0 0.00 0.00 0.00 66 1022.9
20150801093503 64 190 1.0 2.0 0.00 0.00 0.00 65 1022.9
20150801093002 64 190 1.0 2.0 0.00 0.00 0.00 65 1022.9
20150801092501 64 192 1.0 3.0 0.00 0.00 0.00 65 1022.8
20150801092001 64 194 1.0 2.0 0.00 0.00 0.00 65 1022.9
20150801091503 64 194 1.0 2.0 0.00 0.00 0.00 65 1022.9
20150801091002 64 194 1.0 3.0 0.00 0.00 0.00 65 1023.1
20150801090503 64 134 1.0 2.0 0.00 0.00 0.00 66 1023.0
20150801090003 64 134 0.0 1.0 0.00 0.00 0.00 66 1023.1
20150801085502 64 134 0.0 1.0 0.00 0.00 0.00 66 1023.1
20150801085003 64 134 1.0 3.0 0.00 0.00 0.00 66 1023.2
20150801084501 64 183 0.0 2.0 0.00 0.00 0.00 66 1023.2
20150801084002 64 189 0.0 1.0 0.00 0.00 0.00 67 1023.2
20150801083502 64 189 1.0 3.0 0.00 0.00 0.00 67 1023.2
20150801083002 65 188 0.0 1.0 0.00 0.00 0.00 67 1023.3
20150801082502 65 188 0.0 1.0 0.00 0.00 0.00 67 1023.3
20150801082002 65 188 0.0 1.0 0.00 0.00 0.00 67 1023.4
20150801081501 65 188 1.0 2.0 0.00 0.00 0.00 66 1023.4
20150801081002 65 188 0.0 1.0 0.00 0.00 0.00 66 1023.5
20150801080502 65 188 0.0 1.0 0.00 0.00 0.00 66 1023.5
20150801080002 66 188 0.0 1.0 0.00 0.00 0.00 66 1023.5
20150801075501 66 188 0.0 1.0 0.00 0.00 0.00 65 1023.5
20150801075002 66 188 0.0 2.0 0.00 0.00 0.00 64 1023.6
20150801074502 66 188 0.0 1.0 0.00 0.00 0.00 64 1023.7
20150801074002 66 188 0.0 0.0 0.00 0.00 0.00 65 1023.7
20150801073502 66 188 0.0 1.0 0.00 0.00 0.00 65 1023.9
20150801073002 66 188 0.0 1.0 0.00 0.00 0.00 63 1024.0
20150801072502 66 188 0.0 2.0 0.00 0.00 0.00 63 1024.0
20150801072002 67 188 1.0 2.0 0.00 0.00 0.00 63 1024.1
20150801071503 67 188 0.0 2.0 0.00 0.00 0.00 63 1024.1
20150801071003 67 188 0.0 3.0 0.00 0.00 0.00 63 1024.1
20150801070503 67 188 0.0 2.0 0.00 0.00 0.00 63 1024.1
20150801070003 67 189 1.0 3.0 0.00 0.00 0.00 63 1024.1
20150801065502 67 165 1.0 3.0 0.00 0.00 0.00 62 1024.1
20150801065003 67 168 1.0 3.0 0.00 0.00 0.00 63 1024.2
20150801064503 67 189 1.0 3.0 0.00 0.00 0.00 63 1024.2
20150801064002 67 192 1.0 5.0 0.00 0.00 0.00 62 1024.2
20150801063502 67 172 1.0 3.0 0.00 0.00 0.00 62 1024.4
20150801063002 68 176 1.0 3.0 0.00 0.00 0.00 61 1024.2
20150801062501 68 174 1.0 5.0 0.00 0.00 0.00 61 1024.3
20150801062002 68 188 1.0 2.0 0.00 0.00 0.00 60 1024.3
20150801061502 68 188 1.0 3.0 0.00 0.00 0.00 60 1024.3
20150801061003 68 190 1.0 3.0 0.00 0.00 0.00 60 1024.3
20150801060502 69 220 2.0 3.0 0.00 0.00 0.00 59 1024.2
20150801060002 69 165 2.0 3.0 0.00 0.00 0.00 59 1024.6
20150801055502 69 165 1.0 2.0 0.00 0.00 0.00 57 1024.6
20150801055003 69 165 1.0 3.0 0.00 0.00 0.00 57 1024.5
20150801054501 69 113 0.0 1.0 0.00 0.00 0.00 57 1024.6
20150801054003 70 113 0.0 1.0 0.00 0.00 0.00 57 1024.7
20150801053502 70 113 0.0 1.0 0.00 0.00 0.00 56 1024.8
20150801053002 70 113 0.0 1.0 0.00 0.00 0.00 56 1024.8
20150801052501 70 113 1.0 3.0 0.00 0.00 0.00 56 1024.8
20150801052003 70 113 0.0 1.0 0.00 0.00 0.00 56 1024.8
20150801051502 71 113 0.0 1.0 0.00 0.00 0.00 56 1024.9
20150801051003 71 113 0.0 0.0 0.00 0.00 0.00 55 1024.9
20150801050501 71 113 0.0 0.0 0.00 0.00 0.00 56 1024.9
20150801050001 71 113 0.0 1.0 0.00 0.00 0.00 55 1024.9
20150801045502 71 113 0.0 1.0 0.00 0.00 0.00 55 1025.0
20150801045002 72 113 0.0 2.0 0.00 0.00 0.00 54 1025.0
20150801044503 72 113 1.0 2.0 0.00 0.00 0.00 53 1025.0
20150801044002 72 107 0.0 3.0 0.00 0.00 0.00 53 1025.0
20150801043503 72 108 2.0 3.0 0.00 0.00 0.00 53 1025.0
20150801043002 72 113 2.0 6.0 0.00 0.00 0.00 53 1025.1
20150801042503 72 107 1.0 3.0 0.00 0.00 0.00 53 1025.1
20150801042002 73 111 2.0 3.0 0.00 0.00 0.00 53 1025.1
20150801041502 73 140 1.0 3.0 0.00 0.00 0.00 53 1025.1
20150801041002 73 163 0.0 3.0 0.00 0.00 0.00 53 1025.0
20150801040503 73 148 0.0 2.0 0.00 0.00 0.00 52 1025.0
20150801040002 73 148 1.0 2.0 0.00 0.00 0.00 52 1025.0
20150801035502 73 189 1.0 3.0 0.00 0.00 0.00 52 1024.9
20150801035002 74 165 0.0 3.0 0.00 0.00 0.00 52 1025.0
20150801034502 74 142 1.0 2.0 0.00 0.00 0.00 51 1024.9
20150801034001 74 145 1.0 3.0 0.00 0.00 0.00 51 1024.9
20150801033502 74 206 1.0 2.0 0.00 0.00 0.00 51 1024.8
20150801033003 74 187 1.0 5.0 0.00 0.00 0.00 51 1024.7
20150801032502 74 171 1.0 2.0 0.00 0.00 0.00 51 1024.7
20150801032002 74 191 1.0 3.0 0.00 0.00 0.00 51 1024.6
20150801031502 75 175 1.0 3.0 0.00 0.00 0.00 50 1024.5
20150801031003 75 163 1.0 2.0 0.00 0.00 0.00 50 1024.4
20150801030502 75 176 2.0 3.0 0.00 0.00 0.00 49 1024.3
20150801030002 75 169 2.0 3.0 0.00 0.00 0.00 49 1024.3
20150801025503 76 185 1.0 3.0 0.00 0.00 0.00 48 1024.3
20150801025002 76 192 1.0 3.0 0.00 0.00 0.00 48 1024.3
20150801024503 76 204 0.0 2.0 0.00 0.00 0.00 47 1024.2
20150801024002 76 175 1.0 3.0 0.00 0.00 0.00 46 1024.2
20150801023501 77 167 2.0 5.0 0.00 0.00 0.00 46 1024.1
20150801023001 77 161 0.0 1.0 0.00 0.00 0.00 45 1024.0
20150801022502 77 161 1.0 2.0 0.00 0.00 0.00 45 1024.0
20150801022002 78 161 0.0 1.0 0.00 0.00 0.00 44 1024.0
20150801021501 78 161 0.0 2.0 0.00 0.00 0.00 44 1023.9
20150801021002 78 161 1.0 5.0 0.00 0.00 0.00 43 1024.0
20150801020502 78 171 2.0 5.0 0.00 0.00 0.00 43 1024.1
20150801020002 79 207 1.0 3.0 0.00 0.00 0.00 42 1024.1
20150801015503 79 179 2.0 6.0 0.00 0.00 0.00 41 1023.9
20150801015002 79 191 2.0 6.0 0.00 0.00 0.00 41 1024.0
20150801014502 79 179 3.0 7.0 0.00 0.00 0.00 40 1024.0
20150801014002 80 184 0.0 5.0 0.00 0.00 0.00 40 1023.9
20150801013501 80 161 2.0 7.0 0.00 0.00 0.00 40 1023.9
20150801013002 80 196 4.0 7.0 0.00 0.00 0.00 40 1023.9
20150801012501 81 232 1.0 3.0 0.00 0.00 0.00 40 1023.9
20150801012002 81 178 2.0 7.0 0.00 0.00 0.00 39 1023.8
20150801011501 81 190 5.0 12.0 0.00 0.00 0.00 37 1023.8
20150801011002 82 188 3.0 12.0 0.00 0.00 0.00 38 1023.7
20150801010502 83 184 5.0 9.0 0.00 0.00 0.00 37 1023.7
20150801010001 83 184 3.0 9.0 0.00 0.00 0.00 37 1023.9
20150801005502 84 170 2.0 6.0 0.00 0.00 0.00 36 1023.8
20150801005003 84 168 3.0 10.0 0.00 0.00 0.00 35 1023.9
20150801004502 85 179 2.0 6.0 0.00 0.00 0.00 35 1023.8
20150801004001 85 178 3.0 6.0 0.00 0.00 0.00 35 1023.8
20150801003502 86 149 2.0 8.0 0.00 0.00 0.00 35 1024.0
20150801003002 86 145 3.0 9.0 0.00 0.00 0.00 35 1024.0
20150801002502 86 164 4.0 8.0 0.00 0.00 0.00 35 1024.0
20150801002002 87 142 2.0 6.0 0.00 0.00 0.00 34 1024.0
20150801001503 87 136 3.0 9.0 0.00 0.00 0.00 34 1024.1
20150801001001 87 177 3.0 5.0 0.00 0.00 0.00 34 1024.1
20150801000501 88 189 3.0 15.0 0.00 0.00 0.00 32 1024.1
20150801000002 88 164 2.0 12.0 0.00 0.00 0.00 32 1024.1
20150731235502 89 181 5.0 10.0 0.00 0.00 0.00 31 1024.2
20150731235001 89 189 3.0 9.0 0.00 0.00 0.00 31 1024.2
20150731234502 89 154 2.0 8.0 0.00 0.00 0.00 31 1024.1
20150731234002 89 179 4.0 12.0 0.00 0.00 0.00 31 1024.1
20150731233502 89 165 2.0 8.0 0.00 0.00 0.00 31 1024.1
20150731233003 90 140 3.0 9.0 0.00 0.00 0.00 30 1024.1
20150731232501 90 149 3.0 9.0 0.00 0.00 0.00 30 1024.0
20150731232003 90 185 5.0 10.0 0.00 0.00 0.00 30 1024.0
20150731231503 90 207 5.0 9.0 0.00 0.00 0.00 31 1024.1
20150731231001 91 177 1.0 9.0 0.00 0.00 0.00 30 1024.3
20150731230502 91 191 3.0 8.0 0.00 0.00 0.00 31 1024.2
20150731230003 91 169 4.0 10.0 0.00 0.00 0.00 29 1024.3
20150731225501 91 180 5.0 13.0 0.00 0.00 0.00 31 1024.2
20150731225002 91 196 3.0 12.0 0.00 0.00 0.00 29 1024.2
20150731224501 91 172 3.0 9.0 0.00 0.00 0.00 28 1024.1
20150731224002 90 174 3.0 10.0 0.00 0.00 0.00 29 1024.1
20150731223503 90 217 2.0 6.0 0.00 0.00 0.00 30 1024.0
20150731223002 90 277 1.0 7.0 0.00 0.00 0.00 30 1024.0
20150731222503 89 204 3.0 7.0 0.00 0.00 0.00 28 1024.2
20150731222003 89 223 3.0 7.0 0.00 0.00 0.00 31 1024.1
20150731221503 89 198 5.0 9.0 0.00 0.00 0.00 30 1024.2
20150731221002 88 226 3.0 6.0 0.00 0.00 0.00 32 1024.2
20150731220502 88 217 6.0 10.0 0.00 0.00 0.00 31 1024.4
20150731220002 88 198 5.0 9.0 0.00 0.00 0.00 32 1024.4
20150731215502 87 209 3.0 8.0 0.00 0.00 0.00 31 1024.4
20150731215002 87 205 5.0 12.0 0.00 0.00 0.00 31 1024.4
20150731214502 88 203 6.0 12.0 0.00 0.00 0.00 32 1024.5
20150731214002 88 221 6.0 12.0 0.00 0.00 0.00 31 1024.8
20150731213502 88 134 2.0 6.0 0.00 0.00 0.00 29 1024.7
20150731213002 88 162 2.0 3.0 0.00 0.00 0.00 29 1024.6
20150731212501 88 170 2.0 3.0 0.00 0.00 0.00 29 1024.7
20150731212002 88 176 2.0 3.0 0.00 0.00 0.00 29 1024.8
20150731211502 87 173 1.0 5.0 0.00 0.00 0.00 29 1024.8
20150731211002 87 186 1.0 3.0 0.00 0.00 0.00 29 1024.8
20150731210502 87 200 2.0 3.0 0.00 0.00 0.00 32 1024.9
20150731210002 87 198 2.0 3.0 0.00 0.00 0.00 29 1025.0
20150731205502 87 130 2.0 3.0 0.00 0.00 0.00 28 1025.0
20150731205002 87 127 1.0 3.0 0.00 0.00 0.00 28 1025.0
20150731204502 87 128 1.0 3.0 0.00 0.00 0.00 29 1025.1
20150731204002 87 178 1.0 3.0 0.00 0.00 0.00 28 1025.1
20150731203502 87 126 2.0 7.0 0.00 0.00 0.00 27 1025.2
20150731203002 88 144 1.0 3.0 0.00 0.00 0.00 28 1025.0
20150731202502 88 111 2.0 3.0 0.00 0.00 0.00 27 1025.1
20150731202001 89 152 2.0 6.0 0.00 0.00 0.00 27 1025.1
20150731201503 90 115 3.0 5.0 0.00 0.00 0.00 26 1025.2
20150731201004 91 126 1.0 3.0 0.00 0.00 0.00 27 1025.2
20150731200502 91 193 3.0 6.0 0.00 0.00 0.00 26 1025.2
20150731200003 92 137 1.0 3.0 0.00 0.00 0.00 26 1025.3
20150731195501 92 160 1.0 3.0 0.00 0.00 0.00 26 1025.2
20150731195001 93 291 2.0 6.0 0.00 0.00 0.00 27 1025.3
20150731194503 93 195 3.0 6.0 0.00 0.00 0.00 28 1025.4
20150731194002 92 215 2.0 3.0 0.00 0.00 0.00 27 1025.3
20150731193501 92 232 2.0 6.0 0.00 0.00 0.00 26 1025.5
20150731193002 92 120 3.0 6.0 0.00 0.00 0.00 25 1025.6
20150731192502 92 180 3.0 7.0 0.00 0.00 0.00 29 1025.6
20150731192001 92 131 3.0 12.0 0.00 0.00 0.00 26 1025.6
20150731191503 93 87 3.0 6.0 0.00 0.00 0.00 27 1025.9
20150731191003 92 194 1.0 3.0 0.00 0.00 0.00 29 1026.3
20150731190501 91 207 2.0 5.0 0.00 0.00 0.00 33 1026.2
20150731190001 90 122 3.0 8.0 0.00 0.00 0.00 29 1026.1
20150731185502 89 284 2.0 5.0 0.00 0.00 0.00 30 1026.3
20150731185001 89 149 2.0 3.0 0.00 0.00 0.00 31 1026.4
20150731184503 89 223 2.0 9.0 0.00 0.00 0.00 30 1026.6
20150731184001 89 202 3.0 8.0 0.00 0.00 0.00 32 1026.5
20150731183501 88 89 1.0 6.0 0.00 0.00 0.00 31 1026.6
20150731183002 87 120 3.0 8.0 0.00 0.00 0.00 31 1026.5
20150731182502 87 96 2.0 5.0 0.00 0.00 0.00 33 1026.7
20150731182003 87 23 2.0 7.0 0.00 0.00 0.00 35 1026.7
20150731181501 86 55 2.0 5.0 0.00 0.00 0.00 36 1027.0
20150731181002 86 3 1.0 6.0 0.00 0.00 0.00 37 1026.9
20150731180502 85 115 2.0 10.0 0.00 0.00 0.00 37 1026.8
20150731180002 85 108 3.0 9.0 0.00 0.00 0.00 37 1027.0
20150731175502 84 127 2.0 9.0 0.00 0.00 0.00 38 1026.8
20150731175002 84 130 2.0 6.0 0.00 0.00 0.00 37 1027.1
20150731174502 84 112 3.0 6.0 0.00 0.00 0.00 39 1027.2
20150731174002 84 129 4.0 8.0 0.00 0.00 0.00 38 1027.3
20150731173501 84 115 2.0 7.0 0.00 0.00 0.00 38 1027.3
20150731173002 84 105 4.0 9.0 0.00 0.00 0.00 37 1027.4
20150731172501 84 162 2.0 3.0 0.00 0.00 0.00 39 1027.6
20150731172003 84 123 3.0 8.0 0.00 0.00 0.00 39 1027.7
20150731171502 84 110 5.0 9.0 0.00 0.00 0.00 38 1028.0
20150731171002 84 124 2.0 6.0 0.00 0.00 0.00 39 1028.1
20150731170502 84 133 2.0 5.0 0.00 0.00 0.00 40 1028.1
20150731170002 84 214 1.0 3.0 0.00 0.00 0.00 43 1028.1
20150731165503 84 221 3.0 5.0 0.00 0.00 0.00 40 1028.1
20150731165002 83 328 2.0 3.0 0.00 0.00 0.00 44 1028.3
20150731164501 83 228 2.0 5.0 0.00 0.00 0.00 42 1028.3
20150731164002 82 206 2.0 3.0 0.00 0.00 0.00 45 1028.3
20150731163502 82 210 2.0 3.0 0.00 0.00 0.00 45 1028.3
20150731163002 81 198 1.0 3.0 0.00 0.00 0.00 47 1028.3
20150731162501 81 218 2.0 3.0 0.00 0.00 0.00 46 1028.5
20150731162002 80 211 2.0 5.0 0.00 0.00 0.00 46 1028.4
20150731161501 80 118 1.0 2.0 0.00 0.00 0.00 47 1028.6
20150731161002 80 118 2.0 3.0 0.00 0.00 0.00 47 1028.4
20150731160503 79 156 1.0 3.0 0.00 0.00 0.00 49 1028.4
20150731160002 79 173 1.0 3.0 0.00 0.00 0.00 49 1028.4
20150731155501 78 177 1.0 3.0 0.00 0.00 0.00 49 1028.3
20150731155002 78 146 1.0 3.0 0.00 0.00 0.00 51 1028.4
20150731154501 78 120 2.0 3.0 0.00 0.00 0.00 50 1028.5
20150731154002 78 139 2.0 3.0 0.00 0.00 0.00 51 1028.5
20150731153501 77 228 2.0 3.0 0.00 0.00 0.00 52 1028.6
20150731153002 77 148 1.0 3.0 0.00 0.00 0.00 53 1028.6
20150731152502 76 148 1.0 2.0 0.00 0.00 0.00 54 1028.7
20150731152002 76 132 1.0 3.0 0.00 0.00 0.00 53 1028.7
20150731151501 76 128 1.0 3.0 0.00 0.00 0.00 55 1028.7
20150731151002 75 128 1.0 3.0 0.00 0.00 0.00 55 1028.8
20150731150501 74 108 2.0 3.0 0.00 0.00 0.00 57 1028.7
20150731150002 74 0 1.0 3.0 0.00 0.00 0.00 59 1028.8
20150731145502 73 114 1.0 2.0 0.00 0.00 0.00 61 1028.9
20150731145002 73 114 2.0 3.0 0.00 0.00 0.00 61 1028.8
20150731144502 72 101 1.0 3.0 0.00 0.00 0.00 65 1028.8
20150731144003 71 37 2.0 3.0 0.00 0.00 0.00 65 1028.7
20150731143502 70 122 2.0 7.0 0.00 0.00 0.00 68 1028.7
20150731143001 69 342 2.0 3.0 0.00 0.00 0.00 71 1028.7
20150731142502 68 302 1.0 3.0 0.00 0.00 0.00 73 1028.7
20150731142001 67 310 2.0 3.0 0.00 0.00 0.00 75 1028.7
20150731141502 66 5 2.0 3.0 0.00 0.00 0.00 77 1028.8
20150731141002 65 5 1.0 2.0 0.00 0.00 0.00 79 1028.8
20150731140502 64 5 1.0 2.0 0.00 0.00 0.00 79 1028.8
20150731140003 63 5 1.0 2.0 0.00 0.00 0.00 81 1028.8
20150731135501 63 5 1.0 3.0 0.00 0.00 0.00 81 1028.9
20150731135002 62 329 0.0 2.0 0.00 0.00 0.00 82 1028.9
20150731134503 62 329 1.0 2.0 0.00 0.00 0.00 83 1028.7
20150731134002 62 329 0.0 2.0 0.00 0.00 0.00 83 1028.9
20150731133503 61 329 1.0 3.0 0.00 0.00 0.00 84 1028.7
20150731133002 61 294 1.0 3.0 0.00 0.00 0.00 84 1028.7
20150731132501 61 331 1.0 3.0 0.00 0.00 0.00 85 1028.7
20150731132001 60 344 1.0 2.0 0.00 0.00 0.00 84 1028.7
20150731131502 60 5 1.0 2.0 0.00 0.00 0.00 84 1028.7
20150731131002 60 5 0.0 1.0 0.00 0.00 0.00 83 1028.6
20150731130501 60 5 0.0 1.0 0.00 0.00 0.00 83 1028.7
20150731130002 60 5 0.0 1.0 0.00 0.00 0.00 82 1028.3
20150731125502 60 5 1.0 1.0 0.00 0.00 0.00 82 1028.2
20150731125001 60 5 0.0 0.0 0.00 0.00 0.00 82 1028.3
20150731124502 60 5 0.0 0.0 0.00 0.00 0.00 81 1028.2
20150731124001 60 5 0.0 1.0 0.00 0.00 0.00 80 1028.2
20150731123502 60 5 0.0 0.0 0.00 0.00 0.00 80 1028.2
20150731123002 60 5 0.0 1.0 0.00 0.00 0.00 80 1028.1
20150731122501 60 5 0.0 0.0 0.00 0.00 0.00 79 1028.1
20150731122001 60 5 0.0 1.0 0.00 0.00 0.00 79 1028.1
20150731121502 60 5 0.0 1.0 0.00 0.00 0.00 79 1028.1
20150731121001 60 5 0.0 0.0 0.00 0.00 0.00 78 1028.1
20150731120501 60 5 0.0 0.0 0.00 0.00 0.00 77 1028.2
20150731120002 60 5 0.0 1.0 0.00 0.00 0.00 77 1028.2
20150731115501 60 5 0.0 0.0 0.00 0.00 0.00 77 1028.1
20150731115001 61 5 0.0 0.0 0.00 0.00 0.00 77 1028.0